timestamp,wind_dir_avg,wind_spd_avg,wind_spd_max_dir,wind_spd_gust,battery_voltage,lat,long
2022-10-12 00:04:00+00:00,237.0,13.51,232.0,14.9,12.49,47.59359,-54.27349
2022-10-12 00:14:00+00:00,246.0,13.7,255.0,16.0,12.41,47.59359,-54.27349
2022-10-12 00:24:00+00:00,244.0,11.48,254.0,15.95,12.41,47.59359,-54.27349
2022-10-12 00:34:00+00:00,253.0,12.81,256.0,13.96,12.41,47.59359,-54.27349
2022-10-12 00:44:00+00:00,245.0,11.48,245.0,13.16,12.41,47.59359,-54.27349
2022-10-12 00:54:00+00:00,238.0,12.25,238.0,13.32,12.41,47.59359,-54.27349
2022-10-12 01:04:00+00:00,243.0,11.6,239.0,13.42,12.41,47.59359,-54.27349
2022-10-12 01:14:00+00:00,243.0,12.39,236.0,14.58,12.41,47.59359,-54.27349
2022-10-12 01:24:00+00:00,239.0,13.25,240.0,15.85,12.41,47.59359,-54.27349
2022-10-12 01:34:00+00:00,245.0,11.71,241.0,12.86,12.41,47.59359,-54.27349
2022-10-12 01:44:00+00:00,246.0,11.98,250.0,13.67,12.41,47.59359,-54.27349
2022-10-12 01:54:00+00:00,240.0,11.73,243.0,12.67,12.41,47.59359,-54.27349
2022-10-12 02:04:00+00:00,247.0,11.17,246.0,13.0,12.41,47.59359,-54.27349
2022-10-12 02:14:00+00:00,247.0,11.78,243.0,12.93,12.41,47.59359,-54.27349
2022-10-12 02:24:00+00:00,241.0,11.75,238.0,13.55,12.41,47.59359,-54.27349
2022-10-12 02:34:00+00:00,244.0,11.23,243.0,12.9,12.41,47.59359,-54.27349
2022-10-12 02:44:00+00:00,247.0,11.82,245.0,14.18,12.41,47.59359,-54.27349
2022-10-12 02:54:00+00:00,244.0,10.27,244.0,12.03,12.41,47.59359,-54.27349
2022-10-12 03:04:00+00:00,243.0,12.29,243.0,13.78,12.41,47.59359,-54.27349
2022-10-12 03:14:01+00:00,233.0,11.31,234.0,13.4,12.41,47.59359,-54.27349
2022-10-12 03:24:01+00:00,239.0,11.56,236.0,13.97,12.41,47.59359,-54.27349
2022-10-12 03:34:01+00:00,233.0,8.89,235.0,11.49,12.41,47.59359,-54.27349
2022-10-12 03:44:01+00:00,240.0,11.02,240.0,13.2,12.41,47.59359,-54.27349
2022-10-12 03:54:01+00:00,239.0,11.26,235.0,13.19,12.41,47.59359,-54.27349
2022-10-12 04:04:01+00:00,236.0,10.15,238.0,11.86,12.41,47.59359,-54.27349
2022-10-12 04:14:01+00:00,245.0,10.95,245.0,12.6,12.41,47.59359,-54.27349
2022-10-12 04:24:01+00:00,242.0,10.49,240.0,11.83,12.41,47.59359,-54.27349
2022-10-12 04:34:01+00:00,241.0,9.54,241.0,10.89,12.41,47.59359,-54.27349
2022-10-12 04:44:01+00:00,239.0,9.95,243.0,11.94,12.41,47.59359,-54.27349
2022-10-12 04:54:01+00:00,238.0,9.0,241.0,12.21,12.41,47.59359,-54.27349
2022-10-12 05:04:01+00:00,239.0,8.71,242.0,10.5,12.41,47.59359,-54.27349
2022-10-12 05:14:00+00:00,241.0,8.43,237.0,9.56,12.33,47.59359,-54.27349
2022-10-12 05:24:00+00:00,250.0,9.25,251.0,10.85,12.33,47.59359,-54.27349
2022-10-12 05:34:00+00:00,242.0,8.12,248.0,9.57,12.33,47.59359,-54.27349
2022-10-12 05:44:00+00:00,246.0,8.66,245.0,10.31,12.33,47.59359,-54.27349
2022-10-12 05:54:00+00:00,253.0,9.02,252.0,10.52,12.33,47.59359,-54.27349
2022-10-12 06:04:00+00:00,250.0,7.96,246.0,9.35,12.33,47.59359,-54.27349
2022-10-12 06:14:00+00:00,247.0,7.29,247.0,8.27,12.41,47.59359,-54.27349
2022-10-12 06:24:00+00:00,246.0,7.04,247.0,8.07,12.41,47.59359,-54.27349
2022-10-12 06:34:00+00:00,250.0,6.22,252.0,7.97,12.41,47.59359,-54.27349
2022-10-12 06:44:00+00:00,252.0,5.56,254.0,6.29,12.41,47.59359,-54.27349
2022-10-12 06:54:00+00:00,256.0,5.34,256.0,5.98,12.41,47.59359,-54.27349
2022-10-12 07:04:00+00:00,249.0,5.78,254.0,6.91,12.41,47.59359,-54.27349
2022-10-12 07:14:01+00:00,252.0,5.88,255.0,6.73,12.33,47.59359,-54.27349
2022-10-12 07:24:01+00:00,246.0,6.15,245.0,6.76,12.33,47.59359,-54.27349
2022-10-12 07:34:01+00:00,242.0,5.45,242.0,6.24,12.33,47.59359,-54.27349
2022-10-12 07:44:01+00:00,247.0,5.47,243.0,5.99,12.33,47.59359,-54.27349
2022-10-12 07:54:01+00:00,254.0,5.12,247.0,6.35,12.33,47.59359,-54.27349
2022-10-12 08:04:01+00:00,247.0,5.76,245.0,6.77,12.33,47.59359,-54.27349
2022-10-12 08:14:01+00:00,253.0,5.78,254.0,7.28,12.33,47.59359,-54.27349
2022-10-12 08:24:01+00:00,251.0,5.6,254.0,6.38,12.33,47.59359,-54.27349
2022-10-12 08:34:01+00:00,245.0,6.19,250.0,6.91,12.33,47.59359,-54.27349
2022-10-12 08:44:01+00:00,239.0,6.33,240.0,7.79,12.33,47.59359,-54.27349
2022-10-12 08:54:01+00:00,249.0,6.91,249.0,7.51,12.33,47.59359,-54.27349
2022-10-12 09:04:01+00:00,249.0,6.42,251.0,7.07,12.33,47.59359,-54.27349
2022-10-12 09:14:01+00:00,248.0,6.32,241.0,7.09,12.25,47.59359,-54.27349
2022-10-12 09:24:01+00:00,241.0,6.45,240.0,7.24,12.25,47.59359,-54.27349
2022-10-12 09:34:01+00:00,248.0,6.2,250.0,7.02,12.25,47.59359,-54.27349
2022-10-12 09:44:01+00:00,250.0,6.54,251.0,7.96,12.25,47.59359,-54.27349
2022-10-12 09:54:01+00:00,251.0,6.47,249.0,7.1,12.25,47.59359,-54.27349
2022-10-12 10:04:01+00:00,249.0,6.0,254.0,6.91,12.25,47.59359,-54.27349
2022-10-12 10:14:00+00:00,254.0,5.94,251.0,6.46,12.41,47.59359,-54.27349
2022-10-12 10:24:00+00:00,244.0,5.62,245.0,6.0,12.41,47.59359,-54.27349
2022-10-12 10:34:00+00:00,255.0,5.28,249.0,5.82,12.41,47.59359,-54.27349
2022-10-12 10:44:00+00:00,263.0,5.16,262.0,5.74,12.41,47.59359,-54.27349
2022-10-12 10:54:00+00:00,272.0,4.19,273.0,5.03,12.41,47.59359,-54.27349
2022-10-12 11:04:00+00:00,280.0,4.2,281.0,4.84,12.41,47.59359,-54.27349
2022-10-12 11:14:01+00:00,292.0,4.12,297.0,4.59,14.0,47.59359,-54.27349
2022-10-12 11:24:01+00:00,281.0,4.76,287.0,5.61,14.0,47.59359,-54.27349
2022-10-12 11:34:01+00:00,283.0,3.87,290.0,5.71,14.0,47.59359,-54.27349
2022-10-12 11:44:01+00:00,286.0,4.92,288.0,5.94,14.0,47.59359,-54.27349
2022-10-12 11:54:01+00:00,296.0,5.34,298.0,6.05,14.0,47.59359,-54.27349
2022-10-12 12:04:01+00:00,315.0,5.21,314.0,6.16,14.0,47.59359,-54.27349
2022-10-12 12:14:00+00:00,311.0,6.51,310.0,8.05,14.32,47.59359,-54.27349
2022-10-12 12:24:00+00:00,302.0,4.91,309.0,5.75,14.32,47.59359,-54.27349
2022-10-12 12:34:00+00:00,302.0,5.89,306.0,6.79,14.32,47.59359,-54.27349
2022-10-12 12:44:00+00:00,308.0,7.15,307.0,8.57,14.32,47.59359,-54.27349
2022-10-12 12:54:00+00:00,305.0,6.12,299.0,7.31,14.32,47.59359,-54.27349
2022-10-12 13:04:00+00:00,317.0,5.92,321.0,7.3,14.32,47.59359,-54.27349
2022-10-12 13:14:01+00:00,320.0,5.42,324.0,6.34,13.84,47.59359,-54.27349
2022-10-12 13:24:01+00:00,308.0,6.23,308.0,7.36,13.84,47.59359,-54.27349
2022-10-12 13:34:01+00:00,311.0,6.79,309.0,8.64,13.84,47.59359,-54.27349
2022-10-12 13:44:01+00:00,321.0,5.7,323.0,6.48,13.84,47.59359,-54.27349
2022-10-12 13:54:01+00:00,310.0,5.31,314.0,5.68,13.84,47.59359,-54.27349
2022-10-12 14:04:01+00:00,312.0,5.28,315.0,6.71,13.84,47.59359,-54.27349
2022-10-12 14:14:01+00:00,319.0,6.64,321.0,7.81,13.84,47.59359,-54.27349
2022-10-12 14:24:01+00:00,322.0,5.11,324.0,5.68,13.84,47.59359,-54.27349
2022-10-12 14:34:01+00:00,318.0,3.85,309.0,4.51,13.84,47.59359,-54.27349
2022-10-12 14:44:01+00:00,333.0,4.82,331.0,6.43,13.84,47.59359,-54.27349
2022-10-12 14:54:01+00:00,316.0,3.84,315.0,4.48,13.84,47.59359,-54.27349
2022-10-12 15:04:01+00:00,313.0,4.71,313.0,5.63,13.84,47.59359,-54.27349
2022-10-12 15:14:01+00:00,277.0,3.26,286.0,3.9,14.48,47.59359,-54.27349
2022-10-12 15:24:01+00:00,317.0,3.22,322.0,3.65,14.48,47.59359,-54.27349
2022-10-12 15:34:01+00:00,309.0,3.84,319.0,5.1,14.48,47.59359,-54.27349
2022-10-12 15:44:01+00:00,289.0,3.0,297.0,3.44,14.48,47.59359,-54.27349
2022-10-12 15:54:01+00:00,274.0,3.32,267.0,3.99,14.48,47.59359,-54.27349
2022-10-12 16:04:01+00:00,292.0,4.43,292.0,4.89,14.48,47.59359,-54.27349
2022-10-12 16:14:01+00:00,272.0,4.47,272.0,5.09,14.48,47.59359,-54.27349
2022-10-12 16:24:01+00:00,279.0,2.89,279.0,4.29,14.48,47.59359,-54.27349
2022-10-12 16:34:01+00:00,263.0,3.83,267.0,4.77,14.48,47.59359,-54.27349
2022-10-12 16:44:01+00:00,249.0,3.68,250.0,4.29,14.48,47.59359,-54.27349
2022-10-12 16:54:01+00:00,236.0,5.0,237.0,5.29,14.48,47.59359,-54.27349
2022-10-12 17:04:01+00:00,234.0,4.81,231.0,5.3,14.48,47.59359,-54.27349
2022-10-12 17:14:00+00:00,250.0,3.93,242.0,5.19,13.53,47.59359,-54.27349
2022-10-12 17:24:00+00:00,246.0,4.01,241.0,4.53,13.53,47.59359,-54.27349
2022-10-12 17:34:00+00:00,265.0,4.35,263.0,4.6,13.53,47.59359,-54.27349
2022-10-12 17:44:00+00:00,290.0,4.49,290.0,4.92,13.53,47.59359,-54.27349
2022-10-12 17:54:00+00:00,260.0,3.82,258.0,4.37,13.53,47.59359,-54.27349
2022-10-12 18:04:00+00:00,268.0,4.55,268.0,4.92,13.53,47.59359,-54.27349
2022-10-12 18:14:00+00:00,266.0,3.94,267.0,4.43,14.24,47.59359,-54.27349
2022-10-12 18:24:00+00:00,250.0,4.86,253.0,5.18,14.24,47.59359,-54.27349
2022-10-12 18:34:00+00:00,276.0,4.12,276.0,4.53,14.24,47.59359,-54.27349
2022-10-12 18:44:00+00:00,271.0,4.29,279.0,4.62,14.24,47.59359,-54.27349
2022-10-12 18:54:00+00:00,276.0,5.96,279.0,6.46,14.24,47.59359,-54.27349
2022-10-12 19:04:00+00:00,270.0,4.62,268.0,4.94,14.24,47.59359,-54.27349
2022-10-12 19:14:00+00:00,271.0,4.15,271.0,4.47,13.84,47.59359,-54.27349
2022-10-12 19:24:00+00:00,277.0,4.73,279.0,5.37,13.84,47.59359,-54.27349
2022-10-12 19:34:00+00:00,280.0,5.59,282.0,5.98,13.84,47.59359,-54.27349
2022-10-12 19:44:00+00:00,275.0,5.12,267.0,5.62,13.84,47.59359,-54.27349
2022-10-12 19:54:00+00:00,279.0,6.18,282.0,6.72,13.84,47.59359,-54.27349
2022-10-12 20:04:00+00:00,273.0,5.18,277.0,5.63,13.84,47.59359,-54.27349
2022-10-12 20:14:00+00:00,280.0,5.93,284.0,6.73,13.68,47.59359,-54.27349
2022-10-12 20:24:00+00:00,277.0,6.13,274.0,6.95,13.68,47.59359,-54.27349
2022-10-12 20:34:00+00:00,276.0,5.77,277.0,6.49,13.68,47.59359,-54.27349
2022-10-12 20:44:00+00:00,271.0,5.79,269.0,6.38,13.68,47.59359,-54.27349
2022-10-12 20:54:00+00:00,274.0,6.09,273.0,6.7,13.68,47.59359,-54.27349
2022-10-12 21:04:00+00:00,270.0,6.04,267.0,7.13,13.68,47.59359,-54.27349
2022-10-12 21:14:00+00:00,271.0,7.1,270.0,8.65,13.05,47.59359,-54.27349
2022-10-12 21:24:00+00:00,275.0,7.01,276.0,8.13,13.05,47.59359,-54.27349
2022-10-12 21:34:00+00:00,270.0,6.87,267.0,7.49,13.05,47.59359,-54.27349
2022-10-12 21:44:00+00:00,269.0,6.51,265.0,7.2,13.05,47.59359,-54.27349
2022-10-12 21:54:00+00:00,272.0,7.35,275.0,8.35,13.05,47.59359,-54.27349
2022-10-12 22:04:00+00:00,259.0,5.88,259.0,6.79,13.05,47.59359,-54.27349
2022-10-12 22:14:00+00:00,251.0,5.81,247.0,6.67,12.49,47.59359,-54.27349
2022-10-12 22:24:00+00:00,260.0,5.8,264.0,6.76,12.49,47.59359,-54.27349
2022-10-12 22:34:00+00:00,253.0,6.74,251.0,7.72,12.49,47.59359,-54.27349
2022-10-12 22:44:00+00:00,261.0,6.6,264.0,7.37,12.49,47.59359,-54.27349
2022-10-12 22:54:00+00:00,248.0,5.71,250.0,6.55,12.49,47.59359,-54.27349
2022-10-12 23:04:00+00:00,261.0,4.96,252.0,5.51,12.49,47.59359,-54.27349
2022-10-12 23:14:00+00:00,273.0,5.66,271.0,6.74,12.49,47.59359,-54.27349
2022-10-12 23:24:00+00:00,258.0,5.11,255.0,5.66,12.49,47.59359,-54.27349
2022-10-12 23:34:00+00:00,253.0,4.78,252.0,5.4,12.49,47.59359,-54.27349
2022-10-12 23:44:00+00:00,247.0,4.73,240.0,5.36,12.49,47.59359,-54.27349
2022-10-12 23:54:00+00:00,270.0,6.11,270.0,7.05,12.49,47.59359,-54.27349
